Find GGSE 2

NORAD ID: 1244 Int'l Des: 1965-016 Owner: NRO/NRL Country: US operational
LEOCIRCULAR

Live Position

Loading 3D Globe...

About GGSE 2

Description loading...

Upcoming Passes

Passes for default location (London). Set your location on the main map for personalized predictions.

Altitude History

Loading altitude history...

Two-Line Element Set

1 1244U 65016B 26105.87910006 .00000045 00000-0 71094-4 0 9998
2 1244 70.0795 319.0516 0020808 177.7728 182.3475 13.96150544109360
Epoch: Apr 15, 2026 • Age: 13 hours

Current Status

Altitude 931.5 km
Velocity 7.39 km/s
Sub-Earth Point -69.18°S, 151.14°W
Type other

Most Searched